Temperature
8 8 8 8 8 7 7 6 6 5 5 5 5 5 5 5 5 5 5 5 4 4 4 4 4 4 4 4 4 4 4 3 3 3 3 2 2 2
7 7 7 7 7 7 6 6 5 5 4 4 4 4 4 4 4 4 4 4 4 4 4 3 3 3 3 3 3 3 3 3 2 2 2 1 1 1
6 6 6 6 6 6 5 5 5 4 4 4 4 3 3 3 3 3 3 3 3 3 3 3 3 2 2 2 2 2 2 2 1 1 1 1 0 0
5 5 5 5 5 5 5 4 4 4 3 3 3 3 3 3 2 2 2 2 2 2 2 2 2 2 2 1 1 1 1 1 1 0 0 0 -0 -0
5 4 4 4 4 4 4 4 3 3 3 3 2 2 2 2 1 1 1 1 1 1 1 1 1 1 1 1 1 0 0 0 -0 -0 -1 -1 -1 -1
4 4 4 4 3 3 3 3 3 3 2 2 1 1 1 1 0 0 0 0 0 0 0 0 0 -0 -0 -0 -0 -0 -1 -1 -1 -1 -1 -2 -2 -2
3 3 3 3 3 2 2 2 2 2 1 1 1 0 -0 -0 -1 -1 -1 -1 -1 -1 -1 -1 -1 -1 -1 -1 -1 -1 -1 -1 -2 -2 -2 -2 -3 -3
2 2 2 2 2 2 2 2 1 1 1 0 -0 -1 -1 -1 -1 -2 -2 -2 -3 -2 -2 -2 -2 -2 -2 -2 -2 -2 -2 -2 -2 -2 -2 -3 -3 -3
2 1 1 1 1 1 1 1 1 0 0 -0 -1 -2 -2 -2 -2 -2 -2 -3 -3 -3 -2 -3 -3 -3 -3 -2 -2 -2 -2 -2 -3 -3 -3 -3 -3 -3
1 1 1 0 0 0 -0 -0 -0 -0 -1 -1 -2 -2 -2 -2 -3 -3 -3 -3 -3 -3 -3 -3 -3 -3 -3 -3 -3 -3 -3 -3 -3 -3 -3 -3 -4 -4
0 0 -0 -0 -0 -1 -1 -1 -1 -1 -2 -2 -2 -2 -3 -3 -3 -3 -4 -4 -4 -4 -4 -4 -4 -3 -3 -3 -3 -3 -4 -4 -4 -4 -4 -4 -4 -4
-0 -1 -1 -1 -1 -1 -1 -2 -2 -2 -2 -3 -3 -3 -3 -3 -4 -4 -4 -4 -4 -5 -5 -5 -5 -5 -4 -4 -4 -4 -4 -4 -4 -4 -4 -4 -4 -4
-1 -1 -1 -1 -1 -2 -2 -2 -2 -3 -3 -3 -3 -4 -4 -4 -4 -4 -4 -5 -5 -5 -5 -5 -5 -5 -6 -5 -4 -4 -5 -5 -5 -5 -5 -4 -5 -5
-1 -1 -2 -2 -2 -2 -2 -3 -3 -3 -3 -4 -4 -4 -4 -4 -4 -4 -5 -5 -5 -5 -5 -6 -6 -6 -7 -6 -5 -5 -5 -5 -5 -5 -5 -5 -5 -5
-2 -2 -2 -2 -2 -2 -3 -3 -3 -3 -4 -4 -4 -4 -4 -4 -5 -5 -5 -5 -5 -5 -6 -6 -6 -6 -7 -7 -7 -6 -6 -5 -6 -6 -6 -6 -6 -5
-2 -2 -2 -2 -3 -3 -3 -3 -3 -4 -4 -4 -4 -4 -5 -5 -5 -5 -5 -5 -5 -5 -6 -6 -7 -7 -7 -7 -7 -6 -6 -7 -6 -6 -6 -6 -6 -6
-2 -2 -2 -3 -3 -3 -3 -3 -4 -4 -4 -4 -5 -5 -5 -5 -5 -6 -6 -6 -6 -6 -6 -7 -7 -7 -7 -7 -7 -6 -7 -7 -7 -7 -7 -6 -6 -6
-3 -2 -2 -3 -3 -3 -3 -3 -4 -4 -4 -4 -5 -5 -5 -5 -6 -6 -6 -6 -7 -7 -7 -7 -8 -8 -7 -7 -6 -7 -7 -7 -7 -7 -8 -7 -6 -6
-3 -2 -2 -3 -3 -3 -3 -4 -4 -4 -4 -5 -5 -5 -6 -6 -6 -6 -7 -7 -7 -7 -7 -8 -8 -8 -9 -9 -8 -7 -7 -8 -8 -8 -8 -8 -7 -6
-2 -2 -2 -2 -3 -3 -3 -4 -4 -4 -4 -5 -5 -5 -6 -6 -6 -7 -7 -7 -8 -8 -8 -8 -8 -9 -9 -9 -9 -7 -7 -8 -8 -8 -8 -8 -7 -7
-2 -2 -2 -3 -3 -3 -3 -4 -4 -4 -5 -5 -5 -6 -6 -6 -7 -7 -7 -8 -8 -8 -8 -8 -8 -9 -9 -9 -9 -8 -7 -8 -8 -9 -8 -8 -8 -7
-2 -2 -2 -3 -3 -3 -4 -4 -4 -4 -5 -5 -5 -6 -6 -7 -7 -7 -7 -8 -8 -8 -8 -8 -9 -9 -9 -9 -9 -8 -8 -8 -8 -8 -8 -8 -9 -9
-2 -2 -2 -3 -3 -3 -4 -4 -4 -4 -5 -5 -6 -6 -6 -7 -7 -7 -8 -8 -8 -8 -9 -9 -9 -9 -9 -9 -9 -9 -9 -8 -8 -8 -8 -8 -8 -8
Wind_Speed
1 2 1 1 1 1 1 2 4 4 3 2 2 5 7 7 9 8 9 12 13 13 12 12 12 11 10 9 7 3 4 3 4 4 4 4 5 6
3 3 3 2 2 2 1 1 1 2 1 2 2 4 5 6 8 8 9 11 13 13 12 12 11 10 9 9 7 5 3 3 2 1 2 3 4 6
4 4 5 4 3 3 3 2 2 0 1 1 2 3 4 5 6 7 8 8 9 12 11 11 10 10 8 7 6 5 4 3 1 2 3 5 6 7
5 6 6 5 5 4 4 4 3 3 1 2 1 2 3 4 5 5 6 6 7 10 10 10 9 8 8 7 5 4 3 3 3 4 4 5 6 8
6 6 6 6 6 5 5 4 3 3 2 2 2 1 2 3 3 4 4 5 6 7 8 8 8 7 6 5 5 5 4 4 5 5 6 7 8 9
7 7 6 6 6 5 4 4 4 4 4 3 2 2 2 2 2 3 3 4 4 4 6 6 6 6 5 5 5 5 5 6 6 7 8 8 9 10
7 7 7 8 7 6 4 4 3 3 3 3 2 1 2 2 2 3 4 4 2 3 5 5 5 4 4 4 5 6 7 7 8 8 8 9 9 10
6 6 6 6 7 8 8 8 6 3 3 2 1 1 1 2 2 3 3 4 2 3 5 4 3 3 3 5 7 8 7 7 7 8 8 9 9 10
4 4 4 4 5 5 6 7 7 7 5 2 1 1 1 2 2 3 3 4 4 5 5 3 3 4 4 6 7 6 5 5 6 8 8 9 10 11
3 3 3 3 3 3 3 4 4 4 4 2 2 1 1 2 2 3 4 5 5 2 3 3 4 5 6 5 3 4 4 6 7 7 8 9 10 11
3 2 2 2 3 2 2 2 2 2 3 3 3 2 2 2 3 3 3 4 3 2 2 3 4 6 5 3 2 3 6 7 8 9 9 10 11 12
3 2 1 1 2 2 1 1 1 1 0 0 1 1 0 0 2 2 2 3 2 2 1 3 4 5 4 3 4 5 7 8 9 10 11 11 11 10
3 3 2 2 2 2 2 2 1 1 2 2 2 2 2 1 1 2 2 2 3 3 2 3 3 3 4 5 5 6 6 7 8 10 11 11 12 11
3 3 3 3 3 3 3 2 2 3 2 2 3 3 2 2 2 3 4 5 6 7 7 5 4 4 5 6 6 5 6 8 9 9 9 9 10 12
4 4 4 4 4 4 4 4 4 3 3 3 4 3 3 3 3 4 5 6 8 10 10 9 8 7 7 7 7 8 7 7 8 7 7 7 8 8
5 5 6 6 5 5 4 4 4 4 4 4 4 3 3 3 4 4 4 4 5 5 6 8 9 8 8 10 10 11 10 7 6 7 8 9 10 11
5 5 5 5 5 5 5 5 5 4 5 5 4 4 4 4 4 4 4 4 5 5 5 5 7 9 11 10 10 11 10 10 9 9 9 9 9 10
7 6 6 6 6 6 6 6 6 6 5 5 5 5 5 5 5 5 5 6 7 7 7 6 5 5 5 8 13 11 9 9 8 9 9 10 11 10
9 8 7 7 7 7 6 6 6 6 5 6 6 6 6 6 6 6 6 6 7 7 7 6 6 5 7 8 5 11 9 8 9 9 9 10 11 11
9 9 8 8 7 7 7 7 6 6 6 6 7 6 6 6 6 7 7 7 7 8 8 7 7 7 8 8 7 7 11 11 10 10 10 10 11 14
10 10 9 9 8 8 8 7 7 7 7 7 7 7 7 7 7 7 7 10 9 8 9 8 7 8 7 7 9 10 10 13 15 11 11 11 11 11
10 10 9 9 9 8 8 8 8 8 8 8 8 7 7 7 8 9 8 8 8 9 10 9 7 7 7 8 11 13 13 12 13 19 22 19 10 7
11 10 9 9 9 8 8 9 10 8 8 8 8 8 8 8 8 8 8 9 9 9 9 9 8 8 9 10 11 12 15 14 11 11 12 17 23 28
Wind_Direction
58 68 76 52 35 9 317 262 254 250 231 85 52 26 19 21 14 18 24 23 27 32 34 35 37 45 51 57 60 81 115 137 161 165 192 221 244 256
72 81 77 64 61 47 44 22 274 258 220 84 49 21 20 26 25 27 29 29 33 34 36 38 43 45 47 47 43 55 76 95 115 165 235 253 259 268
84 86 81 73 75 62 59 62 55 9 185 107 52 24 23 23 24 26 25 25 28 30 30 34 38 38 37 37 42 48 50 45 14 305 283 277 277 278
90 90 83 79 75 64 62 63 60 45 96 136 75 33 30 22 19 23 22 21 23 26 26 28 28 25 22 20 22 17 9 349 317 294 284 282 283 282
89 88 84 81 75 66 63 64 61 58 60 112 96 55 33 20 10 16 18 16 17 17 19 20 16 8 0 359 355 345 331 314 298 288 285 283 281 281
82 81 78 78 78 75 69 65 67 76 86 101 100 78 45 20 2 1 359 3 0 4 1 355 353 352 356 354 347 336 321 302 290 282 277 274 274 276
85 80 76 73 68 66 66 64 66 76 87 96 97 86 53 21 10 356 340 336 346 1 340 339 337 336 342 344 337 326 311 300 292 285 280 276 275 275
101 92 86 80 77 74 68 61 54 64 80 88 95 91 48 17 359 346 338 335 330 3 336 327 330 328 336 335 335 322 306 295 291 288 285 283 282 281
110 108 96 83 75 80 81 80 70 60 49 47 86 56 22 360 343 331 336 324 313 334 327 309 329 320 327 325 328 322 313 306 301 295 290 287 287 285
113 112 114 110 90 80 87 80 73 66 54 43 50 32 8 345 322 303 304 300 293 303 324 299 326 322 321 314 342 340 331 324 315 302 296 294 291 288
133 131 126 126 121 128 110 97 92 86 76 56 42 39 24 358 332 303 306 309 305 316 351 308 323 323 309 294 287 295 306 313 314 304 296 293 292 290
169 172 181 185 153 189 208 198 202 115 113 175 188 162 287 43 339 308 301 292 297 301 13 326 320 331 312 297 294 291 287 287 292 293 293 292 291 285
196 199 195 213 228 227 251 251 258 269 256 265 265 263 265 272 287 300 292 272 273 270 325 330 302 306 294 302 301 291 290 296 297 292 287 283 279 272
214 214 209 223 242 240 246 248 236 244 254 258 262 265 273 281 290 291 284 273 263 265 277 278 269 276 287 293 289 295 298 293 291 290 287 282 274 266
224 222 229 231 237 237 237 237 233 242 247 251 257 263 269 276 281 281 277 273 270 264 259 251 250 260 262 267 278 289 301 298 291 282 281 279 279 275
224 219 226 229 236 243 234 229 235 245 251 257 260 262 258 258 263 271 280 289 286 275 243 238 243 248 257 261 268 275 279 280 283 282 285 283 277 268
211 218 223 225 228 228 230 233 233 232 239 246 251 256 257 259 262 262 265 270 269 279 283 265 249 248 252 259 265 266 269 270 271 276 279 280 276 271
216 228 230 231 234 235 234 233 230 232 235 238 243 249 254 258 263 261 259 262 268 274 277 281 283 285 270 252 233 254 265 269 274 275 273 277 280 277
226 234 236 236 236 236 236 236 236 232 228 234 240 244 248 253 256 259 259 260 265 271 274 273 267 264 278 288 262 223 248 273 281 281 276 274 278 281
229 235 237 237 236 236 235 234 235 231 226 231 236 239 240 245 250 254 256 259 266 273 275 268 257 252 258 278 285 276 255 263 273 277 281 282 280 281
228 233 235 236 235 234 233 232 231 231 230 229 235 236 236 239 246 251 256 260 261 266 269 270 266 262 266 270 270 269 269 255 253 263 276 281 284 283
231 232 232 232 231 231 230 227 228 229 228 228 232 234 233 235 242 247 251 257 258 261 268 272 272 264 255 256 267 279 286 284 271 263 257 254 259 268
230 231 231 229 228 227 226 225 226 230 228 227 229 230 231 234 240 244 248 251 256 261 266 272 272 264 259 261 269 276 282 287 287 284 272 259 253 255
Height
1514 1514 1514 1513 1513 1513 1513 1514 1515 1514 1514 1512 1511 1510 1509 1508 1507 1506 1505 1504 1502 1501 1500 1500 1499 1499 1498 1499 1499 1500 1500 1502 1503 1504 1506 1507 1509 1511
1510 1510 1509 1509 1509 1509 1509 1509 1509 1510 1510 1508 1507 1507 1506 1505 1504 1503 1502 1501 1500 1499 1498 1497 1497 1497 1497 1497 1496 1496 1497 1498 1499 1500 1501 1503 1504 1506
1506 1506 1506 1506 1505 1505 1505 1505 1505 1506 1506 1505 1505 1504 1503 1502 1501 1500 1500 1499 1498 1497 1496 1495 1495 1494 1494 1494 1494 1494 1494 1495 1496 1497 1497 1498 1499 1500
1503 1503 1503 1503 1503 1502 1502 1502 1502 1503 1503 1502 1502 1501 1501 1500 1499 1498 1497 1496 1495 1494 1493 1493 1492 1492 1491 1491 1491 1491 1491 1491 1492 1492 1493 1493 1494 1495
1501 1501 1501 1501 1500 1500 1500 1500 1500 1500 1500 1500 1499 1499 1498 1497 1497 1496 1495 1494 1493 1492 1491 1490 1489 1489 1488 1488 1488 1487 1487 1487 1487 1488 1488 1488 1489 1489
1499 1499 1499 1499 1499 1499 1498 1498 1498 1498 1498 1497 1497 1497 1496 1495 1495 1494 1493 1492 1490 1489 1488 1487 1486 1486 1485 1485 1484 1484 1483 1483 1483 1483 1483 1483 1484 1484
1497 1497 1497 1497 1497 1497 1497 1496 1496 1496 1496 1495 1495 1495 1494 1493 1493 1492 1491 1490 1488 1487 1486 1485 1484 1483 1482 1481 1481 1480 1479 1479 1479 1479 1479 1479 1479 1479
1496 1496 1496 1495 1495 1495 1495 1495 1495 1494 1494 1494 1493 1493 1492 1492 1491 1490 1489 1488 1487 1486 1484 1483 1482 1481 1480 1479 1477 1477 1476 1475 1475 1475 1475 1475 1475 1475
1494 1494 1494 1494 1494 1494 1493 1493 1493 1493 1493 1493 1492 1492 1491 1490 1489 1488 1487 1486 1485 1484 1482 1481 1480 1479 1477 1476 1474 1473 1473 1472 1471 1471 1471 1471 1470 1470
1493 1493 1493 1493 1493 1492 1492 1492 1491 1491 1491 1490 1490 1490 1489 1488 1487 1487 1486 1485 1483 1482 1481 1480 1478 1477 1475 1473 1471 1470 1470 1469 1468 1468 1467 1467 1466 1466
1492 1492 1492 1492 1492 1491 1491 1490 1490 1490 1489 1489 1488 1488 1487 1486 1486 1485 1484 1483 1482 1481 1479 1478 1476 1474 1472 1470 1469 1468 1467 1466 1465 1464 1463 1462 1462 1461
1490 1490 1490 1490 1490 1490 1489 1489 1489 1488 1488 1487 1487 1486 1485 1484 1484 1483 1482 1481 1479 1478 1476 1475 1473 1472 1470 1468 1467 1466 1464 1462 1461 1460 1458 1458 1457 1456
1489 1489 1488 1488 1488 1488 1488 1487 1487 1487 1486 1485 1485 1484 1483 1482 1481 1480 1479 1478 1477 1476 1475 1472 1471 1469 1468 1465 1463 1462 1460 1459 1457 1455 1454 1453 1452 1451
1487 1487 1486 1486 1486 1486 1485 1485 1485 1484 1484 1483 1483 1482 1481 1480 1479 1478 1476 1475 1474 1473 1471 1469 1468 1466 1464 1461 1459 1458 1456 1454 1452 1450 1449 1448 1447 1446
1484 1484 1484 1484 1483 1483 1483 1483 1482 1482 1481 1480 1480 1479 1478 1477 1476 1474 1473 1472 1470 1469 1467 1466 1464 1462 1461 1458 1455 1453 1451 1450 1448 1446 1444 1443 1442 1441
1482 1481 1481 1481 1480 1480 1480 1479 1479 1478 1478 1477 1476 1475 1474 1473 1472 1471 1469 1468 1466 1465 1464 1462 1460 1458 1456 1454 1452 1449 1447 1445 1443 1442 1439 1438 1436 1435
1478 1478 1478 1477 1477 1477 1476 1476 1475 1475 1474 1473 1472 1471 1470 1469 1468 1467 1465 1463 1462 1460 1459 1458 1455 1453 1451 1450 1446 1444 1443 1441 1439 1436 1434 1432 1431 1429
1475 1474 1474 1474 1473 1473 1472 1472 1471 1471 1470 1469 1468 1467 1466 1465 1464 1462 1461 1459 1458 1456 1454 1453 1451 1448 1446 1443 1443 1440 1438 1436 1434 1431 1429 1426 1423 1423
1470 1470 1469 1469 1469 1468 1468 1467 1467 1466 1465 1464 1463 1462 1461 1460 1459 1457 1456 1455 1453 1451 1450 1448 1446 1444 1441 1439 1436 1435 1433 1430 1428 1426 1423 1421 1417 1416
1465 1465 1464 1464 1464 1463 1463 1462 1462 1461 1460 1459 1458 1457 1456 1455 1454 1452 1451 1450 1448 1446 1444 1443 1442 1439 1437 1435 1431 1428 1428 1425 1422 1419 1417 1414 1411 1409
1459 1459 1459 1459 1458 1458 1457 1457 1456 1455 1455 1454 1453 1452 1451 1450 1448 1447 1446 1444 1442 1440 1439 1438 1436 1435 1431 1429 1425 1421 1421 1419 1417 1414 1411 1408 1404 1401
1453 1453 1453 1453 1452 1452 1451 1450 1450 1449 1448 1448 1447 1446 1445 1444 1442 1441 1440 1438 1436 1435 1433 1432 1430 1428 1426 1423 1419 1416 1414 1412 1410 1408 1405 1403 1400 1395
1446 1446 1446 1446 1445 1445 1444 1443 1443 1442 1442 1441 1440 1439 1438 1437 1436 1435 1433 1432 1430 1429 1427 1425 1423 1422 1419 1417 1414 1410 1407 1405 1402 1400 1398 1396 1393 1390